Content
SEND FEEDBACK

Daily
Averages
Monthly
Summary
United States of America

COFFMAN COVE, ALASKA


Home > North America > United States > Alaska
Elevation: 460 feet     Latitude: 55 21N     Longitude: 131 39W

WEATHER
 
SELECT A DAY
Number of Records: 206,376;   Date Range: 1/1/95 - 7/7/14
 
SHARE

PRINT THIS DATA

[ ← Previous Day ]
WEATHER ALMANAC - JANUARY 31, 2013
[ Next Day → ]
[ °C ]   °F
Weather ElementAverageHighLow
Temperature42.6 °F44.1 °F (11:53 am)41 °F (12:51 am)
Dewpoint41.4 °F43 °F (11:53 am)39.2 °F (12:51 am)
Humidity95.6 %100 % (4:31 am)87 % (9:04 pm)
Barometer30.01 in30.20 in (11:53 pm)29.90 in (12:51 am)
Wind Speed9.7 mph16.1 mph (10:53 am)
Wind Gust17.3 mph (5:40 am)
Weather ElementAverage
Visibility4.7 mi
Wind DirectionSSE (145.5 °)

Weather ElementTotal
Precipitation0.85 in
Heating Degree Days22.5 (Base 65)
Averaged from 40 records on January 31, 2013
WEATHER CONDITIONS BREAKOUT
WIND DIRECTION BREAKOUT
WEATHER BY HOUR - JANUARY 31, 2013
[ °C ]   °F
Local TimeTemperatureDewpointHumidityBarometerVisibilityWind DirectionWind SpeedGust SpeedPrecipitationEventsConditions
12:51 AM41.0 °F39.2 °F93 %29.90 in3.0 miSouth (180°)6.9 mph0.09 inRainLight Rain
12:53 AM41.0 °F39.9 °F96 %29.90 in3.0 miSouth (170°)6.9 mph0.09 inRainLight Rain
1:53 AM42.1 °F39.9 °F92 %29.91 in3.0 miSouth (180°)6.9 mph0.07 inRainLight Rain
2:30 AM42.8 °F41.0 °F93 %29.91 in2.5 miSSE (160°)6.9 mph0.07 inRainRain
2:44 AM42.8 °F41.0 °F93 %29.91 in3.0 miSouth (170°)5.8 mph0.09 inRainLight Rain
3:05 AM42.8 °F41.0 °F93 %29.91 in4.0 miSSE (160°)6.9 mph0.01 inRainLight Rain
3:53 AM42.1 °F41.0 °F96 %29.92 in3.0 miSSE (160°)4.6 mph0.03 inRainLight Rain
4:03 AM42.8 °F41.0 °F93 %29.91 in2.5 miSSE (160°)6.9 mph0.01 inRainLight Rain
4:31 AM42.8 °F42.8 °F100 %29.92 in3.0 miSouth (180°)5.8 mph0.04 inRainLight Rain
4:43 AM42.8 °F42.8 °F100 %29.91 in2.5 miSSE (160°)8.1 mph0.05 inRainLight Rain
4:53 AM42.1 °F41.0 °F96 %29.92 in2.5 miSSE (160°)6.9 mph0.06 inRainLight Rain
5:04 AM42.8 °F41.0 °F93 %29.92 in3.0 miSSE (160°)6.9 mph0.00 inRainLight Rain
5:40 AM42.8 °F42.8 °F100 %29.92 in2.5 miSSE (150°)11.5 mph17.3 mph0.02 inRainLight Rain
5:49 AM42.8 °F42.8 °F100 %29.93 in3.0 miSE (140°)11.5 mph0.02 inRainLight Rain
5:53 AM43.0 °F42.1 °F97 %29.94 in3.0 miSSE (150°)11.5 mph0.02 inRainLight Rain
6:01 AM42.8 °F42.8 °F100 %29.93 in2.5 miSE (140°)10.4 mph0.01 inRainLight Rain
6:03 AM42.8 °F42.8 °F100 %29.93 in3.0 miSE (140°)11.5 mph0.01 inRainLight Rain
6:53 AM43.0 °F42.1 °F97 %29.94 in10.0 miSE (140°)13.8 mph0.02 inOvercast
7:53 AM43.0 °F42.1 °F97 %29.96 in10.0 miSSE (150°)9.2 mphOvercast
8:20 AM42.8 °F42.8 °F100 %29.97 in3.0 miSE (140°)12.7 mph0.01 inRainLight Rain
8:53 AM43.0 °F42.1 °F97 %29.98 in3.0 miSE (140°)10.4 mph0.03 inRainLight Rain
9:53 AM43.0 °F42.1 °F97 %29.99 in4.0 miSE (140°)15.0 mph0.04 inRainLight Rain
10:50 AM42.8 °F42.8 °F100 %30.01 in1.5 miSE (130°)15.0 mph0.02 inRainLight Rain
10:53 AM43.0 °F42.1 °F97 %30.01 in1.5 miSE (130°)16.1 mph0.02 inRainLight Rain
11:53 AM44.1 °F43.0 °F96 %30.03 in5.0 miSE (130°)15.0 mph0.01 inRainLight Rain
12:53 PM43.0 °F43.0 °F100 %30.05 in4.0 miSE (130°)12.7 mph0.00 inOvercast
1:53 PM43.0 °F42.1 °F97 %30.06 in4.0 miSE (130°)13.8 mph0.00 inRainLight Rain
2:53 PM43.0 °F42.1 °F97 %30.08 in10.0 miSE (130°)10.4 mph0.00 inOvercast
3:53 PM43.0 °F41.0 °F93 %30.10 in10.0 miSE (130°)8.1 mphOvercast
4:53 PM43.0 °F41.0 °F93 %30.11 in10.0 miSE (130°)8.1 mphOvercast
5:53 PM42.1 °F39.9 °F92 %30.12 in10.0 miSE (130°)10.4 mphOvercast
6:53 PM42.1 °F39.9 °F92 %30.13 in10.0 miSE (140°)8.1 mphOvercast
7:53 PM42.1 °F39.9 °F92 %30.15 in10.0 miESE (120°)10.4 mphOvercast
8:53 PM42.1 °F39.9 °F92 %30.16 in10.0 miSE (130°)10.4 mphOvercast
9:04 PM42.8 °F39.2 °F87 %30.15 in10.0 miSE (130°)9.2 mphOvercast
9:53 PM42.1 °F41.0 °F96 %30.17 in5.0 miSE (130°)8.1 mphOvercast
10:53 PM42.1 °F41.0 °F96 %30.18 in3.0 miSE (140°)8.1 mphOvercast
11:10 PM42.8 °F41.0 °F93 %30.18 in2.0 miSE (140°)9.2 mphOvercast
11:24 PM42.8 °F41.0 °F93 %30.19 in2.0 miSE (140°)8.1 mphOvercast
11:53 PM42.1 °F41.0 °F96 %30.20 in2.5 miSSE (150°)8.1 mph0.01 inOvercast
Hourly data recorded from PAKT, located miles away from Coffman Cove, Alaska







STORIES FROM OUR PARTNERS